Greenville, ME

1:29 AM EST on December 13, 2017 (GMT -0500)
Greenville

Weather History for KGNR - February, 2013

Change the Weather History Date:

Saturday, February 16, 2013

  Actual Average (KMLT) Record (KMLT)
Temperature  
Mean Temperature 22 °F -  
Max Temperature 27 °F 28 °F 57 °F (1908)
Min Temperature 15 °F 7 °F -23 °F (1914)
Degree Days  
Heating Degree Days 44    
Moisture  
Dew Point 16 °F    
Average Humidity 75    
Maximum Humidity 89    
Minimum Humidity 62    
Precipitation  
Precipitation 0.03 in - - ()
Sea Level Pressure  
Sea Level Pressure 29.89 in    
Wind  
Wind Speed 7 mph (NNW)    
Max Wind Speed 14 mph    
Max Gust Speed 29 mph    
Averages and records for this station are not official NWS values.
T = Trace of Precipitation, MM = Missing Value Source: NWS Daily Summary

Daily Weather History Graph

Daily Weather History Graph

Search for Another Location

Airport or City:

Trip Planner

Search our weather history database for the weather conditions in past years. The results will help you decide how hot, cold, wet, or windy it might be!

Date:

Astronomy

Feb. 16, 2013 Rise Set
Actual Time 6:38 AM EST 5:07 PM EST
Civil Twilight 6:07 AM EST 5:37 PM EST
Nautical Twilight 5:33 AM EST 6:12 PM EST
Astronomical Twilight 4:58 AM EST 6:46 PM EST
Moon 9:27 AM EST (2/16) No Moon Set
Length of Visible Light 11h 29m
Length of Day
10h 29m
Waxing Crescent, 39% of the Moon is Illuminated
Feb 16
Waxing Crescent
Feb 17
First Quarter
Feb 25
Full
Mar 4
Last Quarter
Mar 11
New

Hourly Weather History & Observations

Time (EST) Temp. Windchill Dew Point Humidity Pressure Visibility Wind Dir Wind Speed Gust Speed Precip Events Conditions
12:56 AM 26.1 °F 20.5 °F 21.0 °F 81% 29.91 in - NW 4.6 mph - N/A   Unknown
1:56 AM 27.0 °F 21.6 °F 19.9 °F 75% 29.91 in - North 4.6 mph - N/A   Unknown
2:56 AM 26.1 °F 20.5 °F 19.9 °F 78% 29.90 in - NNE 4.6 mph - N/A   Unknown
3:56 AM 26.1 °F 19.4 °F 19.0 °F 75% 29.89 in - NE 5.8 mph - N/A   Unknown
4:56 AM 26.1 °F - 19.0 °F 75% 29.90 in - Calm Calm - N/A   Unknown
5:56 AM 26.1 °F 19.4 °F 19.9 °F 78% 29.91 in - NNW 5.8 mph - N/A   Unknown
6:56 AM 23.0 °F 13.9 °F 19.9 °F 88% 29.93 in - NNW 8.1 mph - N/A   Unknown
7:56 AM 21.9 °F 12.5 °F 19.0 °F 89% 29.94 in - North 8.1 mph - 0.02 in   Unknown
8:56 AM 21.9 °F 10.4 °F 19.0 °F 89% 29.94 in - NNW 11.5 mph 18.4 mph 0.01 in   Unknown
9:56 AM 23.0 °F 11.7 °F 19.0 °F 85% 29.93 in - NW 11.5 mph 18.4 mph N/A   Unknown
10:56 AM 24.1 °F 13.1 °F 17.1 °F 75% 29.93 in - NNW 11.5 mph 18.4 mph N/A   Unknown
11:56 AM 25.0 °F 13.6 °F 17.1 °F 72% 29.90 in - NNW 12.7 mph - N/A   Unknown
12:56 PM 25.0 °F 14.8 °F 16.0 °F 69% 29.88 in - NNW 10.4 mph 19.6 mph N/A   Unknown
1:56 PM 25.0 °F 17.1 °F 16.0 °F 69% 29.87 in - NNW 6.9 mph - N/A   Unknown
2:56 PM 25.0 °F 17.1 °F 17.1 °F 72% 29.87 in - NW 6.9 mph - N/A   Unknown
3:56 PM 25.0 °F 17.1 °F 18.0 °F 75% 29.87 in - North 6.9 mph - N/A   Unknown
4:56 PM 24.1 °F 15.2 °F 18.0 °F 77% 29.87 in - NNW 8.1 mph - N/A   Unknown
5:56 PM 23.0 °F 11.7 °F 14.0 °F 68% 29.87 in - NNW 11.5 mph - N/A   Unknown
6:56 PM 21.9 °F 10.4 °F 12.9 °F 68% 29.87 in - NNW 11.5 mph - N/A   Unknown
7:56 PM 19.9 °F 7.9 °F 10.0 °F 65% 29.88 in - NNW 11.5 mph 23.0 mph N/A   Unknown
8:56 PM 19.0 °F 6.1 °F 8.1 °F 62% 29.88 in - NNW 12.7 mph 28.8 mph N/A   Unknown
9:56 PM 17.1 °F 3.6 °F 8.1 °F 68% 29.84 in - NNW 12.7 mph - N/A   Unknown
10:56 PM 16.0 °F 2.9 °F 8.1 °F 71% 29.83 in - NNW 11.5 mph 20.7 mph N/A   Unknown
11:56 PM 15.1 °F 0.5 °F 8.1 °F 74% 29.81 in - North 13.8 mph - N/A   Unknown